EW4939 Weather Reports


Display with metric or nautical units.
time (UTC)temp
F
wind
direction
speed
MPH
gust
MPH
rain 1hr
in
rain 24hr
in
rain mn
in
humidity
%
barometer
mb
20260905195103 85 351 0.0 3.0 0.07 0.07 0.07 74 1012.3
20260905194602 90 25 0.0 0.0 0.00 0.06 0.06 64 1012.5
20260905194102 91 258 0.0 4.0 0.00 0.06 0.06 59 1012.5
20260905193556 91 314 2.0 2.0 0.00 0.06 0.06 57 1012.4
20260905193052 91 286 0.0 3.0 0.00 0.06 0.06 59 1012.4
20260905192547 91 6 4.0 6.0 0.00 0.06 0.06 58 1012.6
20260905192044 92 288 1.0 2.0 0.00 0.06 0.06 56 1012.7
20260905191542 91 204 2.0 4.0 0.00 0.06 0.06 57 1012.8
20260905191042 91 326 1.0 3.0 0.00 0.06 0.06 60 1012.9
20260905190540 89 291 1.0 3.0 0.00 0.06 0.06 59 1012.8
20260905190039 89 221 1.0 2.0 0.00 0.06 0.06 64 1012.9
20260905185539 89 28 2.0 3.0 0.00 0.06 0.06 61 1013.0
20260905185038 88 32 1.0 2.0 0.00 0.06 0.06 62 1013.1
20260905184539 89 315 1.0 2.0 0.00 0.06 0.06 61 1013.0
20260905184038 89 301 1.0 2.0 0.00 0.06 0.06 62 1013.1
20260905183537 88 310 1.0 2.0 0.00 0.06 0.06 64 1013.2
20260905183033 88 32 2.0 3.0 0.00 0.06 0.06 61 1013.4
20260905182533 88 21 1.0 4.0 0.00 0.06 0.06 62 1013.2
20260905182032 90 351 2.0 2.0 0.00 0.06 0.06 59 1013.5
20260905181528 90 159 0.0 2.0 0.00 0.06 0.06 59 1013.3
20260905181027 90 177 1.0 2.0 0.00 0.06 0.06 59 1013.3
20260905180527 89 159 0.0 1.0 0.00 0.06 0.06 60 1013.1
20260905180023 89 260 0.0 2.0 0.00 0.06 0.06 60 1013.0
20260905175521 88 205 1.0 2.0 0.00 0.06 0.06 60 1013.3
20260905175017 88 218 1.0 6.0 0.00 0.06 0.06 59 1013.2
20260905174513 88 290 1.0 1.0 0.00 0.06 0.06 60 1013.2
20260905174008 87 147 1.0 4.0 0.00 0.06 0.06 60 1013.2
20260905173504 87 164 0.0 3.0 0.00 0.06 0.06 62 1013.2
20260905172959 87 194 2.0 4.0 0.00 0.06 0.06 62 1013.0
20260905172458 87 193 0.0 3.0 0.00 0.06 0.06 62 1013.0
20260905171953 86 204 1.0 3.0 0.00 0.06 0.06 62 1013.0
20260905171450 87 151 1.0 3.0 0.00 0.06 0.06 63 1013.1
20260905170946 86 281 0.0 1.0 0.00 0.06 0.06 64 1013.3
20260905170442 86 200 1.0 2.0 0.00 0.06 0.06 65 1013.4
20260905165941 85 10 0.0 2.0 0.00 0.06 0.06 67 1013.4
20260905165436 85 317 2.0 3.0 0.00 0.06 0.06 67 1013.5
20260905164932 85 330 2.0 2.0 0.00 0.06 0.06 67 1013.7
20260905164426 85 43 0.0 2.0 0.00 0.06 0.06 68 1013.7
20260905163921 85 345 0.0 2.0 0.00 0.06 0.06 67 1013.8
20260905163418 84 174 0.0 3.0 0.00 0.06 0.06 67 1013.8
20260905162914 84 28 2.0 2.0 0.00 0.06 0.06 66 1013.9
20260905162414 84 279 0.0 3.0 0.00 0.06 0.06 67 1013.9
20260905161909 83 199 2.0 6.0 0.00 0.06 0.06 67 1014.1
20260905161408 83 356 0.0 2.0 0.00 0.06 0.06 67 1013.8
20260905160906 83 43 0.0 3.0 0.00 0.06 0.06 68 1013.9
20260905160401 82 310 1.0 2.0 0.00 0.06 0.06 71 1013.9
20260905155855 82 210 0.0 0.0 0.00 0.06 0.06 70 1013.9
20260905155354 82 204 1.0 4.0 0.00 0.06 0.06 69 1014.0
20260905154853 81 16 1.0 3.0 0.00 0.06 0.06 69 1013.9
20260905154349 81 184 0.0 1.0 0.00 0.06 0.06 72 1013.9
20260905153844 80 286 0.0 1.0 0.00 0.06 0.06 71 1013.9
20260905153341 80 293 1.0 1.0 0.00 0.06 0.06 72 1014.1
20260905152840 80 209 1.0 4.0 0.00 0.06 0.06 72 1013.8
20260905152340 80 184 3.0 7.0 0.00 0.06 0.06 74 1013.7
20260905151835 79 199 1.0 2.0 0.00 0.06 0.06 73 1013.8
20260905151331 79 180 2.0 3.0 0.00 0.06 0.06 74 1013.6
20260905150830 79 187 2.0 4.0 0.00 0.06 0.06 74 1013.6
20260905150325 78 203 2.0 4.0 0.00 0.06 0.06 75 1013.8
20260905145822 78 226 0.0 2.0 0.00 0.06 0.06 75 1014.0
20260905145322 77 151 2.0 2.0 0.00 0.06 0.06 77 1014.0
20260905144821 77 197 1.0 3.0 0.00 0.06 0.06 76 1013.8
20260905144317 77 165 3.0 3.0 0.00 0.06 0.06 77 1014.0
20260905143816 77 256 1.0 2.0 0.00 0.06 0.06 77 1013.8
20260905143310 76 201 0.0 3.0 0.00 0.06 0.06 77 1014.0
20260905142809 76 145 1.0 2.0 0.00 0.06 0.06 80 1013.8
20260905142305 76 166 3.0 4.0 0.00 0.06 0.06 80 1013.9
20260905141800 75 200 3.0 3.0 0.00 0.06 0.06 80 1013.8
20260905141255 75 163 1.0 3.0 0.00 0.06 0.06 81 1013.9
20260905140751 75 187 1.0 2.0 0.00 0.06 0.06 82 1014.1
20260905140250 74 175 3.0 3.0 0.00 0.06 0.06 82 1014.3
20260905135749 74 148 0.0 3.0 0.00 0.06 0.06 84 1014.5
20260905135245 74 170 1.0 2.0 0.00 0.06 0.06 85 1014.7
20260905134745 75 145 1.0 1.0 0.00 0.06 0.06 84 1014.7
20260905134245 74 187 1.0 6.0 0.00 0.06 0.06 84 1014.9
20260905133739 74 192 1.0 3.0 0.00 0.06 0.06 85 1015.3
20260905133235 74 184 1.0 1.0 0.00 0.06 0.06 87 1015.4
20260905132733 73 153 0.0 1.0 0.00 0.06 0.06 87 1015.3
20260905132229 72 195 0.0 2.0 0.00 0.06 0.06 88 1015.4
20260905131724 71 169 0.0 1.0 0.00 0.06 0.06 90 1015.5
20260905131220 71 205 1.0 1.0 0.00 0.06 0.06 92 1015.4
20260905130720 71 169 1.0 2.0 0.00 0.06 0.06 93 1015.5
20260905130219 70 269 0.0 0.0 0.00 0.06 0.06 94 1015.4
20260905125714 70 227 0.0 0.0 0.00 0.06 0.06 94 1015.2
20260905125209 70 355 0.0 1.0 0.00 0.06 0.06 94 1015.3
20260905124706 69 21 1.0 1.0 0.00 0.06 0.06 93 1015.2
20260905124202 69 38 0.0 0.0 0.00 0.06 0.06 96 1015.2
20260905123702 69 241 0.0 0.0 0.00 0.06 0.06 96 1015.1
20260905123159 68 341 0.0 1.0 0.00 0.06 0.06 98 1015.1
20260905122658 68 11 0.0 0.0 0.00 0.06 0.06 98 1015.3
20260905122153 68 11 0.0 0.0 0.00 0.06 0.06 98 1015.2
20260905121648 68 11 0.0 0.0 0.00 0.06 0.06 98 1015.5
20260905121144 68 11 0.0 0.0 0.00 0.06 0.06 98 1015.3
20260905120642 68 11 0.0 1.0 0.00 0.06 0.06 98 1015.4
20260905120138 68 11 0.0 0.0 0.00 0.06 0.06 98 1015.3
20260905115637 68 12 0.0 0.0 0.00 0.06 0.06 98 1015.1
20260905115133 68 12 0.0 0.0 0.00 0.06 0.06 98 1015.4
20260905114632 68 3 1.0 1.0 0.00 0.06 0.06 97 1015.4
20260905114131 68 21 0.0 1.0 0.00 0.06 0.06 96 1015.7
20260905113625 68 22 0.0 1.0 0.00 0.06 0.06 96 1015.7
20260905113122 68 22 1.0 2.0 0.00 0.06 0.06 96 1015.5
20260905112621 68 2 1.0 2.0 0.00 0.06 0.06 97 1015.2
20260905112117 68 35 0.0 1.0 0.00 0.06 0.06 97 1015.4
20260905111612 68 26 0.0 0.0 0.00 0.06 0.06 97 1015.5
20260905111111 68 27 0.0 1.0 0.00 0.06 0.06 98 1015.4
20260905110610 68 19 0.0 2.0 0.00 0.06 0.06 97 1015.5
20260905110106 68 28 0.0 2.0 0.05 0.06 0.06 97 1015.8
20260905105600 68 128 0.0 1.0 0.24 0.06 0.06 96 1015.8
20260905105059 69 1 0.0 3.0 0.31 0.05 0.05 94 1016.1
20260905104555 69 351 0.0 1.0 0.07 0.01 0.01 93 1016.2
20260905104055 69 25 1.0 6.0 0.00 0.00 0.00 92 1016.1
20260905103550 70 39 1.0 2.0 0.00 0.00 0.00 92 1015.7
20260905103046 70 42 0.0 6.0 0.00 0.00 0.00 90 1015.7
20260905102542 70 5 2.0 4.0 0.00 0.00 0.00 90 1015.4
20260905102038 71 22 4.0 7.0 0.00 0.00 0.00 89 1015.7
20260905101536 71 2 4.0 15.0 0.00 0.00 0.00 89 1016.1
20260905101035 71 17 8.0 14.0 0.00 0.00 0.00 89 1016.1
20260905100532 71 27 4.0 10.0 0.00 0.00 0.00 99 1015.7
20260905100031 72 344 4.0 17.0 0.00 0.00 0.00 99 1015.6
20260905095526 73 31 4.0 8.0 0.00 0.00 0.00 99 1015.0
20260905095021 73 166 0.0 0.0 0.00 0.00 0.00 99 1013.7
20260905094516 73 166 0.0 0.0 0.00 0.00 0.00 99 1013.6
20260905094015 72 166 0.0 0.0 0.00 0.00 0.00 99 1013.4
20260905093510 73 166 0.0 0.0 0.00 0.00 0.00 99 1013.3
20260905093006 73 166 0.0 0.0 0.00 0.00 0.00 99 1013.4
20260905092501 73 166 0.0 0.0 0.00 0.00 0.00 99 1013.3
20260905091956 73 166 0.0 0.0 0.00 0.00 0.00 99 1013.2
20260905091456 73 166 0.0 0.0 0.00 0.00 0.00 99 1013.3
20260905090956 73 166 0.0 0.0 0.00 0.00 0.00 99 1013.2
20260905090451 73 166 0.0 0.0 0.00 0.00 0.00 99 1013.6
20260905085950 73 166 0.0 0.0 0.00 0.00 0.00 99 1013.2
20260905085449 73 166 0.0 0.0 0.00 0.00 0.00 99 1013.2
20260905084945 73 166 0.0 0.0 0.00 0.00 0.00 99 1013.3
20260905084445 73 166 0.0 0.0 0.00 0.00 0.00 99 1013.3
20260905083939 73 166 0.0 0.0 0.00 0.00 0.00 99 1013.1
20260905083435 73 166 0.0 0.0 0.00 0.00 0.00 99 1013.4
20260905082931 73 166 0.0 0.0 0.00 0.00 0.00 99 1013.5
20260905082427 73 166 0.0 0.0 0.00 0.00 0.00 99 1013.4
20260905081922 73 166 0.0 0.0 0.00 0.00 0.00 99 1013.5
20260905081417 73 166 0.0 0.0 0.00 0.00 0.00 99 1013.6
20260905080915 73 166 0.0 0.0 0.00 0.00 0.00 99 1013.4
20260905080415 73 166 0.0 0.0 0.00 0.00 0.00 99 1013.4
20260905075914 73 166 0.0 0.0 0.00 0.00 0.00 99 1013.4
20260905075409 73 166 0.0 0.0 0.00 0.00 0.00 99 1013.2
20260905074908 73 166 0.0 0.0 0.00 0.00 0.00 99 1013.1
20260905074404 73 166 0.0 0.0 0.00 0.00 0.00 99 1013.1
20260905073900 73 166 0.0 0.0 0.00 0.00 0.00 99 1012.9
20260905073354 73 166 0.0 0.0 0.00 0.00 0.00 99 1012.7
20260905072850 73 166 0.0 0.0 0.00 0.00 0.00 99 1012.5
20260905072344 73 166 0.0 0.0 0.00 0.00 0.00 99 1012.7
20260905071841 73 166 0.0 0.0 0.00 0.00 0.00 99 1012.7
20260905071338 73 166 0.0 0.0 0.00 0.00 0.00 99 1012.9
20260905070837 73 166 0.0 0.0 0.00 0.00 0.00 99 1012.8
20260905070334 73 166 0.0 0.0 0.00 0.00 0.00 99 1012.6
20260905065832 73 166 0.0 0.0 0.00 0.00 0.00 99 1012.8
20260905065331 73 166 0.0 0.0 0.00 0.00 0.00 99 1013.0
20260905064826 73 166 0.0 0.0 0.00 0.00 0.00 99 1013.1
20260905064322 73 166 0.0 0.0 0.00 0.00 0.00 99 1013.1
20260905063820 73 166 0.0 0.0 0.00 0.00 0.00 99 1013.4
20260905063317 73 166 0.0 0.0 0.00 0.00 0.00 99 1013.1
20260905062813 73 166 0.0 1.0 0.00 0.00 0.00 99 1013.3
20260905062313 73 166 0.0 0.0 0.00 0.00 0.00 99 1013.5
20260905061808 73 166 0.0 0.0 0.00 0.00 0.00 99 1013.6
20260905061308 73 166 0.0 0.0 0.00 0.00 0.00 99 1013.5
20260905060802 73 166 0.0 0.0 0.00 0.00 0.00 99 1013.6
20260905060259 73 166 0.0 0.0 0.00 0.00 0.00 99 1013.7
20260905055757 73 166 0.0 0.0 0.00 0.00 0.00 99 1013.7
20260905055252 73 166 1.0 1.0 0.00 0.00 0.00 99 1013.8
20260905054747 73 166 0.0 0.0 0.00 0.00 0.00 99 1013.8
20260905054244 73 166 0.0 0.0 0.00 0.00 0.00 99 1013.9
20260905053743 73 166 0.0 0.0 0.00 0.00 0.00 99 1013.8
20260905053238 73 166 0.0 0.0 0.00 0.00 0.00 99 1013.9
20260905052738 74 166 0.0 1.0 0.00 0.00 0.00 99 1013.9
20260905052233 74 166 0.0 0.0 0.00 0.00 0.00 99 1014.0
20260905051732 74 166 0.0 0.0 0.00 0.00 0.00 99 1014.2
20260905051229 74 166 0.0 0.0 0.00 0.00 0.00 99 1014.1
20260905050725 74 166 0.0 0.0 0.00 0.00 0.00 99 1014.1
20260905050222 74 166 0.0 0.0 0.00 0.00 0.00 99 1014.3
20260905045721 74 166 0.0 0.0 0.00 0.00 0.00 99 1014.4
20260905045217 74 166 0.0 0.0 0.00 0.00 0.00 99 1014.4
20260905044712 74 166 0.0 0.0 0.00 0.00 0.00 99 1014.3
20260905044207 74 166 0.0 0.0 0.00 0.00 0.00 99 1014.2
20260905043705 74 166 0.0 0.0 0.00 0.00 0.00 99 1014.2
20260905043200 74 166 0.0 0.0 0.00 0.00 0.00 99 1014.3
20260905042655 74 166 0.0 1.0 0.00 0.00 0.00 99 1014.3
20260905042154 74 166 0.0 0.0 0.00 0.00 0.00 99 1014.4
20260905041650 74 166 0.0 0.0 0.00 0.00 0.00 99 1014.4
20260905041145 74 166 0.0 0.0 0.00 0.00 0.00 99 1014.5
20260905040640 74 166 0.0 0.0 0.00 0.00 0.00 99 1014.6
20260905040139 74 166 0.0 0.0 0.00 0.26 0.26 99 1014.4
20260905035634 74 166 0.0 0.0 0.00 0.26 0.26 99 1014.4
20260905035131 74 166 0.0 0.0 0.00 0.26 0.26 99 1014.4
20260905034627 74 166 0.0 0.0 0.00 0.26 0.26 99 1014.6
20260905034126 74 166 1.0 1.0 0.00 0.26 0.26 99 1014.4
20260905033625 74 166 0.0 0.0 0.00 0.26 0.26 99 1014.6
20260905033122 74 166 0.0 0.0 0.00 0.26 0.26 99 1014.5
20260905032621 74 166 0.0 0.0 0.00 0.26 0.26 99 1014.4
20260905032121 74 166 0.0 0.0 0.00 0.26 0.26 99 1014.4
20260905031617 74 166 0.0 0.0 0.00 0.26 0.26 99 1014.3
20260905031117 74 166 0.0 0.0 0.00 0.26 0.26 99 1014.7
20260905030612 74 166 0.0 0.0 0.00 0.26 0.26 99 1014.4
20260905030108 74 166 0.0 0.0 0.00 0.26 0.26 99 1014.6
20260905025602 74 166 0.0 0.0 0.00 0.26 0.26 99 1014.4
20260905025058 74 166 0.0 0.0 0.00 0.26 0.26 99 1014.3
20260905024554 74 166 0.0 0.0 0.00 0.26 0.26 99 1014.4
20260905024049 74 166 0.0 0.0 0.00 0.26 0.26 99 1014.2
20260905023544 74 166 0.0 1.0 0.00 0.26 0.26 99 1014.3
20260905023044 74 154 1.0 1.0 0.00 0.26 0.26 99 1014.3
20260905022543 74 111 0.0 0.0 0.00 0.26 0.26 99 1014.4
20260905022039 74 111 0.0 0.0 0.00 0.26 0.26 99 1014.3
20260905021538 74 111 0.0 0.0 0.00 0.26 0.26 99 1014.3
20260905021034 74 111 0.0 0.0 0.00 0.26 0.26 99 1014.4
20260905020533 74 111 0.0 0.0 0.00 0.26 0.26 99 1014.3
20260905020029 74 111 0.0 0.0 0.00 0.26 0.26 99 1014.2
20260905015526 74 111 0.0 0.0 0.00 0.26 0.26 99 1014.2
20260905015021 74 111 0.0 0.0 0.00 0.26 0.26 99 1014.1
20260905014516 74 111 0.0 0.0 0.00 0.26 0.26 99 1013.9
20260905014012 74 111 0.0 0.0 0.00 0.26 0.26 99 1013.9
20260905013508 74 111 0.0 0.0 0.00 0.26 0.26 99 1013.9
20260905013003 74 111 0.0 0.0 0.00 0.26 0.26 99 1013.9
20260905012457 74 111 0.0 0.0 0.00 0.26 0.26 99 1014.1
20260905011954 74 111 0.0 0.0 0.00 0.26 0.26 99 1013.9
20260905011450 74 111 0.0 0.0 0.00 0.26 0.26 99 1013.8
20260905010946 74 111 0.0 0.0 0.00 0.26 0.26 99 1013.7
20260905010440 74 111 0.0 0.0 0.00 0.26 0.26 99 1013.7
20260905005936 74 111 0.0 0.0 0.00 0.26 0.26 99 1013.7
20260905005432 74 111 0.0 1.0 0.00 0.26 0.26 99 1013.7
20260905004932 74 111 0.0 1.0 0.00 0.26 0.26 99 1013.7
20260905004427 74 111 1.0 1.0 0.00 0.26 0.26 99 1013.7
20260905003922 75 111 0.0 0.0 0.00 0.26 0.26 99 1013.8
20260905003418 75 111 0.0 0.0 0.00 0.26 0.26 99 1013.8
20260905002914 75 111 0.0 0.0 0.00 0.26 0.26 99 1013.7
20260905002414 75 111 0.0 0.0 0.00 0.26 0.26 98 1013.7
20260905001913 75 111 0.0 0.0 0.00 0.26 0.26 98 1013.6
20260905001409 75 111 0.0 0.0 0.00 0.26 0.26 98 1013.6
20260905000903 75 111 0.0 0.0 0.00 0.26 0.26 98 1013.6
20260905000359 75 111 0.0 0.0 0.00 0.26 0.26 98 1013.7
20260904235854 75 111 0.0 0.0 0.00 0.26 0.26 98 1013.8
20260904235349 75 111 1.0 1.0 0.00 0.26 0.26 98 1013.7
20260904234849 75 110 0.0 0.0 0.00 0.26 0.26 97 1013.8
20260904234344 75 110 0.0 0.0 0.00 0.26 0.26 98 1013.7
20260904233840 75 110 0.0 0.0 0.00 0.26 0.26 98 1013.8
20260904233336 75 110 0.0 0.0 0.00 0.26 0.26 97 1014.0
20260904232832 76 110 0.0 0.0 0.00 0.26 0.26 97 1013.8
20260904232329 76 110 0.0 0.0 0.00 0.26 0.26 96 1013.6
20260904231825 76 110 0.0 0.0 0.00 0.26 0.26 97 1013.8
20260904231325 76 110 0.0 0.0 0.00 0.26 0.26 97 1013.6
20260904230820 76 110 0.0 0.0 0.00 0.26 0.26 97 1013.8
20260904230318 76 110 0.0 0.0 0.00 0.26 0.26 97 1013.7
20260904225814 76 156 0.0 0.0 0.00 0.26 0.26 97 1013.9
20260904225312 76 156 0.0 0.0 0.00 0.26 0.26 96 1014.0
20260904224811 76 156 0.0 0.0 0.00 0.26 0.26 96 1013.8
20260904224308 77 156 0.0 2.0 0.00 0.26 0.26 94 1013.8
20260904223806 77 34 0.0 3.0 0.00 0.26 0.26 95 1013.9
20260904223301 77 22 0.0 2.0 0.00 0.26 0.26 96 1013.8
20260904222758 77 115 0.0 1.0 0.00 0.26 0.26 98 1013.8
20260904222253 76 170 0.0 1.0 0.00 0.26 0.26 98 1013.8
20260904221753 76 170 0.0 1.0 0.00 0.26 0.26 98 1013.9
20260904221247 76 170 1.0 1.0 0.00 0.26 0.26 98 1014.0
20260904220743 76 127 0.0 1.0 0.00 0.26 0.26 98 1014.1
20260904220242 75 163 2.0 3.0 0.00 0.26 0.26 99 1014.4
20260904215737 75 134 1.0 2.0 0.00 0.26 0.26 98 1014.3
20260904215233 74 174 2.0 2.0 0.00 0.26 0.26 99 1014.5
20260904214728 74 119 2.0 3.0 0.00 0.26 0.26 98 1014.5
20260904214224 74 171 2.0 3.0 0.05 0.26 0.26 98 1014.8
20260904213721 73 183 0.0 1.0 0.35 0.26 0.26 97 1014.8
20260904213218 73 163 1.0 2.0 1.16 0.25 0.25 96 1015.4
20260904212718 74 56 0.0 1.0 1.09 0.18 0.18 92 1016.5
20260904212213 76 330 4.0 7.0 0.31 0.05 0.05 86 1017.5
20260904211713 78 335 5.0 8.0 0.00 0.00 0.00 73 1016.7
20260904211209 79 34 3.0 6.0 0.00 0.00 0.00 68 1016.1
20260904210709 80 0 4.0 6.0 0.00 0.00 0.00 67 1015.8
20260904210204 81 345 3.0 7.0 0.00 0.00 0.00 63 1015.2
20260904205700 81 56 1.0 3.0 0.00 0.00 0.00 62 1014.7
20260904205156 82 47 5.0 7.0 0.00 0.00 0.00 61 1015.2
20260904204652 83 335 5.0 9.0 0.00 0.00 0.00 59 1015.2
20260904204147 83 9 5.0 8.0 0.00 0.00 0.00 59 1015.0
20260904203643 86 351 8.0 13.0 0.00 0.00 0.00 57 1015.0
20260904203140 97 22 9.0 14.0 0.00 0.00 0.00 51 1015.1
20260904202635 97 305 1.0 3.0 0.00 0.00 0.00 50 1014.3
20260904202132 96 343 1.0 3.0 0.00 0.00 0.00 51 1014.4
20260904201632 97 330 4.0 9.0 0.00 0.00 0.00 51 1014.3
20260904201127 97 44 2.0 3.0 0.00 0.00 0.00 50 1014.3
20260904200626 96 317 2.0 3.0 0.00 0.00 0.00 52 1014.2
20260904200121 97 321 3.0 6.0 0.00 0.00 0.00 51 1014.5
20260904195620 97 317 0.0 3.0 0.00 0.00 0.00 49 1014.2